This is the latest recevied weather packets stored in our database for station/object YO4CIL-MG. If no packets are shown the sender has not sent any weather packets the latest 10 day(s).
| Time | Temp. | Humidity | Pressure | Rain* | Wind** | Luminosity | Snow |
|---|---|---|---|---|---|---|---|
| 1777637120 | 12.78° C | 46% | 1024.5 hPa | - | - | - | - |
| 1777636520 | 12.78° C | 46% | 1024.5 hPa | - | - | - | - |
| 1777635920 | 12.78° C | 48% | 1024.5 hPa | - | - | - | - |
| 1777635320 | 12.78° C | 44% | 1024.5 hPa | - | - | - | - |
| 1777634720 | 12.78° C | 50% | 1024.6 hPa | - | - | - | - |
| 1777634120 | 12.78° C | 51% | 1024.7 hPa | - | - | - | - |
| 1777633520 | 12.78° C | 50% | 1024.6 hPa | - | - | - | - |
| 1777632920 | 12.78° C | 50% | 1024.5 hPa | - | - | - | - |
| 1777632320 | 12.78° C | 51% | 1024.5 hPa | - | - | - | - |
| 1777631720 | 12.78° C | 51% | 1024.5 hPa | - | - | - | - |
| 1777631120 | 12.22° C | 48% | 1024.6 hPa | - | - | - | - |
| 1777630520 | 12.22° C | 50% | 1024.6 hPa | - | - | - | - |
| 1777629920 | 11.67° C | 53% | 1024.6 hPa | - | - | - | - |
| 1777629320 | 11.67° C | 55% | 1024.6 hPa | - | - | - | - |
| 1777628720 | 11.67° C | 54% | 1024.6 hPa | - | - | - | - |
| 1777628120 | 11.67° C | 55% | 1024.6 hPa | - | - | - | - |
| 1777627520 | 11.67° C | 56% | 1024.5 hPa | - | - | - | - |
| 1777626920 | 11.67° C | 57% | 1024.6 hPa | - | - | - | - |
| 1777626320 | 11.11° C | 59% | 1024.5 hPa | - | - | - | - |
| 1777625720 | 11.67° C | 58% | 1024.5 hPa | - | - | - | - |
| 1777625120 | 12.22° C | 58% | 1024.6 hPa | - | - | - | - |
| 1777624520 | 11.67° C | 59% | 1024.5 hPa | - | - | - | - |
| 1777623920 | 11.67° C | 60% | 1024.5 hPa | - | - | - | - |
| 1777623320 | 11.11° C | 61% | 1024.4 hPa | - | - | - | - |
| 1777622720 | 11.11° C | 61% | 1024.5 hPa | - | - | - | - |
* Rain since midnight (hover to see other rain measurements)
** Current wind speed in m/s (hover to see current wind gust speed)